Printer-friendly version

IAU Minor Planet Center

Minor Planet Center

MPEC 2006-U72 : 2006 UH185

The following Minor Planet Electronic Circular may be linked-to from your own Web pages, but must not otherwise be redistributed electronically.


Read MPEC 2006-U71 Read MPEC 2006-U73


M.P.E.C. 2006-U72                                Issued 2006 Oct. 29, 16:07 UT

     The Minor Planet Electronic Circulars contain information on unusual
         minor planets and routine data on comets.  They are published
   on behalf of Commission 20 of the International Astronomical Union by the
          Minor Planet Center, Smithsonian Astrophysical Observatory,
                          Cambridge, MA 02138, U.S.A.

             Prepared using the Tamkin Foundation Computer Network

                              MPC@CFA.HARVARD.EDU
          URL http://cfa-www.harvard.edu/iau/mpc.html  ISSN 1523-6714

                                  2006 UH185

Observations:
     K06UI5H* C2006 10 28.25228 01 15 56.55 +09 04 10.1          20.7 V EU072G96
     K06UI5H  C2006 10 28.26160 01 16 01.12 +09 02 55.3          20.2 V EU072G96
     K06UI5H  C2006 10 28.27097 01 16 05.70 +09 01 40.2          20.4 V EU072G96
     K06UI5H  C2006 10 28.28032 01 16 10.23 +09 00 24.5          20.7 V EU072G96
     K06UI5H  C2006 10 28.37910 01 16 58.69 +08 47 06.2          20.2 V EU072G96
     K06UI5H  C2006 10 28.38360 01 17 00.99 +08 46 28.3          20.9 V EU072G96
     K06UI5H  C2006 10 28.38809 01 17 03.22 +08 45 52.5          20.2 V EU072G96
     K06UI5H  C2006 10 28.39263 01 17 05.49 +08 45 15.6          20.0 V EU072G96
     K06UI5H  C2006 10 29.21324 01 24 31.92 +06 53 01.9          20.6 V EU072G96
     K06UI5H  C2006 10 29.21718 01 24 33.94 +06 52 28.8          20.4 V EU072G96
     K06UI5H  C2006 10 29.22112 01 24 35.94 +06 51 55.7          20.7 V EU072G96
     K06UI5H 5C2006 10 29.22315 01 24 37.65 +06 51 35.9          20.2 R EU072673
     K06UI5H 5C2006 10 29.23299 01 24 42.60 +06 50 14.2                 EU072673
     K06UI5H 5C2006 10 29.24093 01 24 46.64 +06 49 07.8                 EU072673
     K06UI5H 5C2006 10 29.25259 01 24 52.42 +06 47 31.2                 EU072673
     K06UI5H  C2006 10 29.35046 01 25 40.98 +06 33 53.4          20.6 V EU072G96
     K06UI5H  C2006 10 29.35316 01 25 42.38 +06 33 30.7          20.1 V EU072G96
     K06UI5H  C2006 10 29.35587 01 25 43.71 +06 33 08.6          20.8 V EU072G96
     K06UI5H  C2006 10 29.35855 01 25 45.15 +06 32 45.2          19.9 V EU072G96

Observer details:
673 Table Mountain Observatory, Wrightwood.  Observer J. Young.  0.61-m f/16
    Cassegrain + CCD.
G96 Mt. Lemmon Survey.  Observer A. R. Gibbs.  Measurers E. C. Beshore,
    E. J. Christensen, G. J. Garradd, A. R. Gibbs, A. D. Grauer, R. E. Hill,
    R. A. Kowalski, S. M. Larson, R. H. McNaught.  1.5-m reflector + CCD.

Orbital elements:
2006 UH185                                               Earth MOID = 0.0705 AU
Epoch 2006 Sept. 22.0 TT = JDT 2454000.5                MPC
M 337.54886              (2000.0)            P               Q
n   0.42865439     Peri.  196.82764     +0.63525347     -0.76435518
a   1.7420657      Node   213.97025     +0.72940102     +0.64082101
e   0.3946508      Incl.   11.40778     +0.25382511     +0.07148142
P   2.30           H   25.1           G   0.15           U   7
Residuals in seconds of arc
061028 G96  0.7-  0.0     061028 G96  0.0   0.1+    061029 673  0.6-  0.7+
061028 G96  0.0   0.0     061029 G96  0.5-  0.1-    061029 G96  0.2-  0.2-
061028 G96  0.5+  0.2+    061029 G96  0.1+  0.5-    061029 G96  0.2+  0.2-
061028 G96  0.3+  0.3-    061029 G96  0.4+  0.8-    061029 G96  0.6-  0.5+
061028 G96  0.5-  0.7+    061029 673  0.1+  0.3+    061029 G96  0.5+  0.3-
061028 G96  0.3+  0.6-    061029 673  0.0   0.4+
061028 G96  0.1+  0.1+    061029 673  0.6+  0.2+

Ephemeris:
2006 UH185               a,e,i = 1.74, 0.39, 11                  q = 1.0546
Date    TT    R. A. (2000) Decl.     Delta      r     Elong.  Phase     V
2006 10 22    00 27.40   +20 46.1    0.0905   1.080   158.8    19.4    21.0
2006 10 24    00 41.47   +17 32.6    0.0851   1.076   161.7    16.9    20.8
2006 10 26    00 56.94   +13 49.8    0.0805   1.072   164.4    14.4    20.6
2006 10 28    01 13.73   +09 38.6    0.0768   1.068   166.2    12.8    20.4
2006 10 30    01 31.68   +05 03.2    0.0742   1.065   166.1    12.9    20.3
2006 11 01    01 50.55   +00 11.8    0.0726   1.063   163.7    15.2    20.4
2006 11 03    02 10.01   -04 44.6    0.0723   1.060   159.6    19.0    20.5
2006 11 05    02 29.69   -09 33.6    0.0731   1.058   154.8    23.5    20.7
2006 11 07    02 49.19   -14 03.7    0.0751   1.057   149.8    28.2    20.8
2006 11 09    03 08.12   -18 06.7    0.0781   1.056   145.0    32.5    21.1
2006 11 11    03 26.18   -21 38.2    0.0819   1.055   140.7    36.5    21.3
2006 11 13    03 43.14   -24 37.3    0.0866   1.055   136.9    39.9    21.5
2006 11 15    03 58.84   -27 05.7    0.0918   1.055   133.6    42.8    21.7
2006 11 17    04 13.23   -29 06.3    0.0976   1.055   130.8    45.2    21.9
2006 11 19    04 26.29   -30 42.9    0.104    1.056   128.5    47.1    22.1
2006 11 21    04 38.09   -31 58.9    0.110    1.058   126.7    48.5    22.3

Gareth V. Williams           (C) Copyright 2006 MPC           M.P.E.C. 2006-U72

Read MPEC 2006-U71 Read MPEC 2006-U73


Our Web policy. Index to the CBAT/MPC/ICQ pages.


Valid HTML 4.01!